Location: Newark
(15.3000°N, 61.3833°W)
Time: 04:15:50
(UTC+00:00)

Hubble Space Telescope - Visible Passes

Search period start: 24 October 2019 00:00
Search period end: 03 November 2019 00:00
Orbit: 536 x 540 km, 28.5° (Epoch: 23 October)

Date Brightness Start Highest point End Pass type
(mag) Time Alt. Az. Time Alt. Az. Time Alt. Az.
24 Oct 2.4 08:39:51 16° SSW 08:42:27 30° SSE 08:46:07 10° E visible
25 Oct 1.7 08:30:37 32° SSW 08:31:52 42° SSE 08:35:46 10° E visible
26 Oct 1.1 08:21:18 59° SSE 08:21:18 59° SSE 08:25:20 10° ENE visible
27 Oct 1.7 08:11:53 45° ENE 08:11:53 45° ENE 08:14:49 10° ENE visible
28 Oct 2.7 08:02:22 26° NE 08:02:22 26° NE 08:04:15 10° ENE visible
29 Oct 3.4 07:52:46 16° NE 07:52:46 16° NE 07:53:38 10° NE visible
29 Oct 2.6 09:28:16 10° WNW 09:31:09 18° NNW 09:34:02 10° NNE visible
30 Oct 2.7 09:18:25 11° NW 09:20:44 16° N 09:23:19 10° NNE visible
31 Oct 2.8 09:08:39 12° NW 09:10:18 14° N 09:12:38 10° NNE visible
01 Nov 2.9 08:58:49 12° NNW 08:59:54 13° N 09:01:59 10° NNE visible
02 Nov 3.0 08:48:57 13° NNW 08:49:30 13° N 08:51:25 10° NNE visible
